Weather History for Marathon, FL

Change the Weather History Date:

Friday, October 5, 2012

  Actual Average Record
Temperature  
Mean Temperature 86 °F 82 °F  
Max Temperature 90 °F 88 °F 91 °F (2002)
Min Temperature 82 °F 78 °F 72 °F (2008)
Degree Days  
Heating Degree Days 0 0  
Month to date heating degree days 0 0  
Since 1 July heating degree days 0 0  
Cooling Degree Days 21 18  
Month to date cooling degree days 96 90  
Year to date cooling degree days 4339 4044  
Growing Degree Days 36 (Base 50)    
Moisture  
Dew Point 77 °F    
Average Humidity 79    
Maximum Humidity 94    
Minimum Humidity 64    
Precipitation  
Precipitation 0.02 in 0.17 in 0.89 in (2008)
Month to date precipitation 0.66 0.90  
Year to date precipitation 40.79 37.45  
Snow  
Snow 0.00 in - - ()
Month to date snowfall 0.0  
Since 1 July snowfall 0.0  
Since 1 September snowfall 0.0  
Snow Depth 0.00 in    
Sea Level Pressure  
Sea Level Pressure 29.99 in    
Wind  
Wind Speed 8 mph (East)    
Max Wind Speed 14 mph    
Max Gust Speed 18 mph    
Visibility 10 miles    
Events      
T = Trace of Precipitation, MM = Missing Value Source: NWS Daily Summary

Daily Weather History Graph

Daily Weather History Graph

Search for Another Location

Airport:

Trip Planner

Search our weather history database for the weather conditions in past years. The results will help you decide how hot, cold, wet, or windy it might be!

Date:

Astronomy

Oct. 05, 2012 Rise Set
Actual Time 7:18 AM EDT 7:06 PM EDT
Civil Twilight 6:55 AM EDT 7:29 PM EDT
Nautical Twilight 6:28 AM EDT 7:55 PM EDT
Astronomical Twilight 6:02 AM EDT 8:22 PM EDT
Moon 10:57 PM EDT (10/5) 11:56 AM EDT (10/5)
Length of Visible Light 12h 34m
Length of Day
11h 48m
Waning Gibbous, 74% of the Moon is Illuminated
Oct 5
Waning Gibbous
Oct 8
Last Quarter
Oct 15
New
Oct 21
First Quarter
Oct 29
Full

Hourly Weather History & Observations

Time (EDT) Temp. Heat Index Dew Point Humidity Pressure Visibility Wind Dir Wind Speed Gust Speed Precip Events Conditions
12:53 AM 84.0 °F 96.0 °F 79.0 °F 85% 30.06 in 10.0 mi ENE 10.4 mph - N/A   Partly Cloudy
1:53 AM 82.9 °F 93.8 °F 79.0 °F 88% 30.05 in 10.0 mi ENE 6.9 mph - N/A   Clear
2:53 AM 82.9 °F 94.8 °F 80.1 °F 91% 30.04 in 10.0 mi East 8.1 mph - N/A   Mostly Cloudy
3:53 AM 82.0 °F 91.0 °F 78.1 °F 88% 30.02 in 10.0 mi East 6.9 mph - N/A   Clear
4:53 AM 82.9 °F 92.8 °F 78.1 °F 85% 30.01 in 10.0 mi ENE 6.9 mph - N/A   Partly Cloudy
5:53 AM 82.9 °F 92.8 °F 78.1 °F 85% 30.01 in 10.0 mi East 8.1 mph - N/A   Partly Cloudy
6:53 AM 82.9 °F 91.8 °F 77.0 °F 82% 30.02 in 10.0 mi ENE 10.4 mph - N/A   Clear
7:53 AM 82.9 °F 91.8 °F 77.0 °F 82% 30.02 in 10.0 mi East 10.4 mph - N/A   Partly Cloudy
8:53 AM 84.9 °F 96.6 °F 78.1 °F 80% 30.03 in 10.0 mi East 8.1 mph - N/A   Scattered Clouds
9:53 AM 86.0 °F 98.3 °F 78.1 °F 77% 30.03 in 10.0 mi East 10.4 mph - 0.02 in   Clear
10:53 AM 86.0 °F 96.0 °F 75.9 °F 72% 30.04 in 10.0 mi East 9.2 mph - N/A   Scattered Clouds
11:53 AM 88.0 °F 101.3 °F 78.1 °F 72% 30.02 in 10.0 mi ENE 12.7 mph 16.1 mph N/A   Clear
1:53 PM 90.0 °F 101.3 °F 75.9 °F 63% 29.99 in 10.0 mi East 8.1 mph 16.1 mph N/A   Partly Cloudy
2:53 PM 89.1 °F 100.2 °F 75.9 °F 65% 29.96 in 10.0 mi ESE 8.1 mph - N/A   Clear
3:53 PM 88.0 °F 98.5 °F 75.9 °F 67% 29.94 in 10.0 mi East 8.1 mph - N/A   Partly Cloudy
4:53 PM 88.0 °F 100.2 °F 77.0 °F 70% 29.93 in 10.0 mi Variable 5.8 mph - N/A   Partly Cloudy
5:53 PM 86.0 °F 96.9 °F 77.0 °F 74% 29.93 in 10.0 mi East 6.9 mph - N/A   Partly Cloudy
6:53 PM 84.9 °F 95.3 °F 77.0 °F 77% 29.93 in 10.0 mi East 5.8 mph - N/A   Partly Cloudy
7:53 PM 84.0 °F 93.7 °F 77.0 °F 79% 29.94 in 10.0 mi ENE 8.1 mph - N/A   Partly Cloudy
8:53 PM 84.0 °F 93.7 °F 77.0 °F 79% 29.96 in 10.0 mi East 6.9 mph - N/A   Partly Cloudy
9:53 PM 84.0 °F 92.6 °F 75.9 °F 76% 29.97 in 10.0 mi East 8.1 mph - N/A   Partly Cloudy
10:53 PM 84.0 °F 93.7 °F 77.0 °F 79% 29.98 in 10.0 mi East 6.9 mph - N/A   Scattered Clouds
11:53 PM 84.0 °F 92.6 °F 75.9 °F 76% 29.98 in 10.0 mi East 6.9 mph - N/A   Scattered Clouds